Theta_e
298 295 291 289 289 288 287 287 288 287 288 288 289 290 289 288 291 289 288 287 288 287 290 290 290 290 292 295 296 295 292 291 292 294 296 297 298 299 298 297 298 298 298 302 300 300 302 303 301 301 300 301 301 302 302 302 303 303 302 303 302 304 304 301 301 302 301 300 300 300 301 300 300 300 300 300 299 298 297 297 297 297 295 297 298 300
300 294 289 289 288 287 286 287 287 288 287 288 290 290 290 288 291 289 288 287 289 288 291 288 289 292 295 296 295 294 291 293 295 296 296 297 297 297 297 298 299 298 299 300 300 301 303 302 304 302 301 301 301 303 302 302 302 302 302 301 302 304 303 302 301 301 301 301 300 298 298 299 299 300 299 299 299 298 298 298 297 297 296 297 298 298
294 290 290 288 288 287 287 287 287 287 287 288 290 291 290 291 290 289 287 287 288 287 291 290 289 293 295 295 295 293 293 296 296 297 298 297 298 298 297 298 298 298 299 299 299 300 301 303 304 303 302 301 300 301 301 302 302 302 303 303 303 303 303 303 303 302 301 302 302 299 299 299 299 300 300 298 298 299 298 298 298 297 297 296 296 297
291 291 289 288 287 288 287 287 287 287 290 290 291 292 291 289 289 290 287 286 288 288 289 289 287 292 294 294 293 294 292 294 295 294 295 296 297 298 297 297 298 298 299 299 299 299 300 302 302 303 304 303 302 302 303 302 302 303 302 303 303 303 303 303 303 302 303 303 302 302 301 300 300 299 299 300 300 300 299 300 300 300 297 296 296 297
291 289 287 287 287 288 287 286 287 289 290 288 289 288 289 287 287 286 289 288 288 288 286 288 289 294 294 293 293 293 292 292 297 294 294 295 295 296 296 296 297 296 298 299 299 300 300 300 302 303 303 303 302 305 305 305 303 302 302 303 302 302 302 303 302 303 303 302 302 302 302 301 299 300 299 301 301 300 300 300 300 299 298 296 296 296
288 287 287 288 288 288 287 288 285 286 291 289 286 287 286 286 285 286 287 287 289 288 288 285 292 292 294 293 294 295 294 294 294 293 296 298 297 295 295 297 300 299 299 298 298 300 301 301 302 303 303 303 306 304 305 304 302 301 301 302 301 301 301 302 303 303 302 301 301 301 300 299 299 299 299 299 298 299 299 299 299 300 299 297 296 296
289 287 287 287 288 288 288 288 285 285 289 289 287 285 287 285 285 285 286 287 290 290 287 286 288 290 295 293 294 293 293 293 296 295 296 297 298 296 297 298 298 298 299 299 298 298 299 301 301 302 303 305 304 304 304 303 301 300 301 301 301 301 302 303 302 302 301 301 301 301 301 300 299 298 300 300 300 299 299 300 300 300 299 298 296 296
289 287 286 285 287 289 290 290 286 286 287 289 284 287 285 285 285 285 285 286 288 286 285 286 287 288 290 295 291 291 291 294 295 296 297 298 298 298 297 298 299 299 299 300 300 300 300 300 300 300 302 302 302 302 302 302 302 301 301 301 301 301 301 303 302 302 301 301 302 302 301 300 299 299 299 300 300 300 299 299 300 300 299 299 297 296
289 289 288 288 287 289 288 285 286 286 287 287 286 286 286 285 285 285 286 287 286 286 289 290 285 287 288 292 291 291 292 295 296 297 298 298 298 298 299 299 299 300 300 299 300 301 301 302 302 301 300 302 301 301 301 301 302 301 301 301 301 300 301 302 302 302 302 301 302 302 301 300 300 301 300 300 300 299 300 299 300 300 300 300 298 297
288 289 287 288 290 288 286 286 285 285 287 287 286 287 286 286 285 285 287 287 287 286 288 285 283 287 290 294 294 291 292 293 296 297 297 298 298 298 299 299 300 300 301 300 297 298 299 300 300 300 299 298 300 302 301 300 300 300 300 300 300 301 302 303 301 301 302 302 302 301 301 300 301 301 300 300 299 299 300 299 300 301 300 300 299 298
288 290 290 290 288 288 286 286 285 286 285 287 287 286 287 287 286 285 286 286 287 287 288 283 283 284 287 293 294 294 295 296 297 296 297 297 297 296 298 300 301 299 300 300 299 298 299 299 298 298 297 299 300 302 300 301 301 301 300 300 300 302 303 302 301 301 301 302 301 301 302 301 301 301 300 299 299 300 300 299 300 301 301 300 299 299
289 290 290 289 290 288 289 287 285 285 287 287 287 287 288 288 285 286 287 285 286 288 284 283 282 284 286 291 295 297 294 293 296 296 296 297 297 298 298 298 298 297 297 297 297 298 300 300 301 300 299 301 302 301 301 302 302 301 301 300 299 301 303 302 302 301 301 301 301 301 302 301 301 301 300 299 299 300 300 300 300 300 300 300 300 300
291 290 288 288 288 288 287 288 287 287 287 287 286 288 288 289 289 288 289 287 287 287 284 282 283 283 285 293 296 295 295 295 295 297 297 297 297 298 298 299 299 298 297 297 298 299 300 301 301 302 303 302 303 304 304 302 301 300 300 300 299 301 303 302 302 301 302 301 301 301 300 301 301 301 300 300 299 301 300 300 300 299 299 300 300 300
290 290 289 288 288 289 288 290 290 288 287 288 288 287 288 288 284 282 285 282 285 285 281 283 283 284 292 294 297 295 296 294 293 294 294 294 295 297 298 299 296 297 297 297 298 298 298 300 301 301 300 301 301 301 302 302 300 300 300 300 299 301 303 302 301 300 301 301 301 301 301 300 300 300 300 300 299 300 300 300 299 299 299 300 300 300
288 288 289 289 289 286 287 288 287 288 288 288 285 287 287 287 286 282 285 285 285 287 284 282 282 288 288 294 293 295 294 293 292 291 292 292 293 294 294 294 293 294 295 298 298 298 299 300 300 300 301 301 301 301 301 301 301 300 299 300 300 300 302 303 301 301 300 301 302 301 301 300 300 300 300 300 300 300 300 300 299 299 299 299 300 300
287 289 288 288 288 287 287 286 286 287 287 287 287 287 288 287 286 287 283 284 282 284 286 282 286 289 292 294 293 293 292 292 293 292 291 293 293 292 293 294 296 297 297 298 298 299 299 299 299 299 299 299 300 300 300 300 300 300 300 300 299 299 300 301 301 301 301 301 301 301 300 300 300 299 300 300 300 299 300 300 300 299 300 300 300 300
286 288 287 288 288 287 287 286 286 286 288 287 288 289 286 285 286 280 276 274 275 280 285 286 288 292 294 295 295 293 293 295 294 294 294 294 296 294 295 297 298 298 299 299 300 300 300 300 300 299 299 299 299 299 300 300 301 300 299 299 299 299 300 300 300 300 301 301 300 300 300 300 300 299 299 300 301 300 300 300 300 299 300 300 299 299
287 289 287 288 287 286 286 285 286 287 287 287 289 287 287 286 285 286 286 282 285 283 286 284 286 289 289 289 296 294 294 297 296 296 295 295 295 294 297 300 300 300 299 298 298 298 298 298 298 298 299 298 298 299 299 299 300 299 298 298 298 299 299 300 301 300 300 300 299 300 300 300 300 300 300 301 301 302 300 299 299 299 299 299 299 299
287 288 287 285 286 287 286 286 288 288 287 288 287 286 287 287 287 287 285 282 283 282 283 286 284 285 288 292 292 294 294 296 297 297 295 297 298 298 299 300 299 299 297 297 298 299 300 299 300 300 300 300 299 298 298 298 298 298 297 297 297 297 299 300 300 300 299 299 299 300 300 301 301 300 300 300 301 300 300 299 300 299 299 300 300 298
287 288 288 285 286 287 287 287 288 288 288 286 287 288 284 287 285 287 285 284 286 283 281 285 284 288 291 293 294 296 295 298 297 295 297 298 298 298 298 299 299 300 299 299 298 299 299 299 299 298 298 298 298 298 298 298 298 297 298 297 297 298 297 297 297 298 298 299 300 300 299 299 300 300 300 300 299 299 299 299 300 300 299 299 299 299
287 286 288 286 285 286 287 288 288 288 288 287 288 287 286 284 283 284 283 283 285 283 283 281 283 290 298 294 293 296 296 297 296 298 299 299 299 298 297 297 298 298 298 298 299 298 298 298 298 298 298 298 298 298 297 297 297 297 298 297 298 298 298 298 299 299 299 300 300 299 299 300 300 300 299 299 299 298 299 299 299 300 300 300 299 299
287 287 288 288 287 287 287 281 282 282 283 286 288 289 289 287 286 285 285 277 278 284 279 281 283 289 297 291 294 295 294 293 293 293 295 297 297 298 299 299 298 298 298 298 298 298 298 297 298 298 298 299 298 298 298 298 298 297 297 298 298 298 298 298 299 300 300 300 300 299 299 300 300 300 299 298 298 298 298 299 299 300 299 299 299 299
287 288 287 287 288 286 283 282 281 281 281 280 283 287 286 286 287 287 282 283 279 279 276 281 280 288 297 292 291 292 292 291 292 290 292 295 296 297 297 298 298 297 297 297 297 297 297 297 297 297 297 297 297 297 297 297 297 297 297 297 298 297 298 299 300 300 300 300 299 299 299 299 299 299 299 298 298 298 298 298 299 299 299 299 299 299
288 287 287 287 283 283 283 283 282 281 282 283 282 282 284 286 287 287 288 286 286 279 281 281 280 289 298 292 290 290 290 290 289 289 292 294 295 296 297 298 298 297 298 298 298 298 298 298 298 297 297 297 298 298 298 298 298 298 298 297 297 297 298 299 299 299 298 298 298 298 298 298 299 299 298 298 298 298 299 299 299 299 298 298 298 298
287 287 287 286 287 287 285 283 282 280 282 284 286 284 283 283 283 283 283 283 284 281 285 284 283 291 296 291 291 289 290 291 293 293 291 293 296 297 297 297 297 297 297 297 297 298 298 297 297 297 297 297 297 297 297 297 297 297 298 298 297 298 298 298 298 298 298 298 298 298 298 298 298 298 298 298 299 299 299 299 299 299 298 298 298 298
287 286 287 286 282 280 281 284 287 288 286 286 282 281 282 284 283 285 284 284 282 283 283 284 286 294 295 293 293 293 293 295 297 298 295 295 295 295 296 297 296 296 296 296 297 297 298 298 297 297 297 297 297 297 297 297 297 297 297 297 298 297 298 298 298 297 297 297 297 297 298 298 298 298 298 298 299 299 299 299 299 299 299 298 298 298
284 282 284 287 288 288 290 288 286 286 285 285 284 282 283 283 284 285 287 284 284 283 281 286 289 292 294 296 296 297 297 295 296 298 297 297 297 297 297 296 296 296 296 296 296 296 296 297 298 298 298 298 297 297 297 297 297 297 298 298 298 298 298 298 297 297 297 297 297 297 298 298 299 299 299 299 299 299 299 299 299 299 298 298 298 298
283 285 285 283 284 288 287 286 287 287 286 287 285 284 283 283 283 284 284 285 288 284 283 288 289 287 290 294 295 296 297 297 297 297 296 297 297 296 296 295 294 295 296 296 296 296 297 298 298 299 299 299 299 299 298 298 297 297 297 297 298 299 298 299 297 296 296 296 296 296 297 298 299 299 299 299 299 299 298 298 298 298 298 298 297 297
285 284 282 282 284 285 284 283 283 284 285 286 285 286 283 283 282 282 284 288 287 286 286 288 286 287 290 293 295 296 296 296 295 295 296 296 295 295 295 295 295 296 297 297 298 298 298 298 299 299 299 299 299 298 299 299 299 298 298 298 297 297 297 297 296 296 296 296 296 297 298 299 299 299 299 298 298 297 298 298 298 298 298 297 297 297
284 284 280 280 282 284 286 284 283 282 282 282 282 284 286 284 283 284 286 287 287 287 290 291 291 289 292 293 294 296 297 296 295 296 295 294 294 295 295 294 295 296 297 298 299 299 299 299 299 299 299 299 299 300 299 300 300 300 299 299 299 299 299 297 296 295 295 296 296 298 299 299 298 298 298 298 297 297 297 297 297 297 297 296 296 296
283 284 281 278 279 283 282 279 280 281 281 281 283 283 284 284 284 284 285 286 286 285 287 288 287 286 292 294 294 295 295 295 295 294 294 295 295 294 294 295 296 297 298 299 299 300 300 299 299 299 299 300 300 301 300 300 300 300 299 299 299 299 299 297 295 295 295 295 297 298 298 297 297 297 297 297 297 297 297 297 297 296 296 296 296 295
282 283 279 279 281 283 279 280 281 281 280 279 280 282 283 282 281 283 282 285 284 283 285 284 283 284 290 295 294 294 293 293 293 294 295 296 296 294 294 295 296 297 298 298 299 299 299 300 300 300 300 301 301 301 300 300 300 300 299 300 300 300 299 297 296 295 296 296 297 297 297 297 297 296 296 297 296 296 296 296 295 295 295 295 295 295
282 283 281 282 282 281 280 277 280 281 283 283 285 287 287 285 285 284 285 285 286 288 284 283 285 291 295 293 292 295 296 295 295 295 296 297 297 295 295 295 296 297 297 298 298 298 299 300 300 300 300 300 301 301 301 301 299 298 300 299 300 298 296 296 296 296 296 296 296 296 297 296 296 296 296 296 296 296 296 295 295 294 294 294 295 295
279 283 283 282 280 282 278 278 278 281 280 283 291 289 289 286 284 283 284 284 286 287 287 290 292 295 295 293 292 293 295 296 296 296 297 295 294 295 295 296 296 297 297 298 298 298 299 299 300 300 300 300 300 300 301 299 298 298 298 297 297 295 296 295 295 295 295 296 296 296 296 296 296 295 295 296 296 296 295 295 294 295 295 295 294 294
281 281 283 278 280 282 280 281 282 278 281 291 287 288 285 287 288 287 288 288 288 287 289 289 290 291 292 293 294 295 296 296 296 294 294 295 296 295 295 295 296 297 298 298 299 299 300 300 300 300 300 300 300 300 299 299 299 298 297 297 296 296 295 295 295 295 295 295 295 296 296 296 295 295 295 295 295 295 294 294 294 294 294 294 294 294
281 283 279 278 280 280 279 279 272 280 285 288 290 288 287 286 286 285 286 288 289 288 288 287 290 292 293 294 295 296 295 293 293 294 295 296 297 297 296 296 298 298 298 299 299 300 300 300 299 299 299 299 299 298 298 297 298 296 296 296 295 295 295 295 294 294 295 294 295 295 295 295 295 295 295 295 295 294 294 294 294 294 294 294 294 294
284 282 282 282 279 278 278 277 283 285 285 289 290 285 285 286 285 286 286 291 293 291 289 288 290 291 292 293 294 294 291 290 291 294 299 299 300 299 298 298 299 299 299 299 300 299 300 299 298 298 298 297 298 297 297 297 296 295 294 294 295 294 294 294 294 295 295 295 295 295 295 295 295 295 295 295 294 294 294 294 294 294 294 293 293 293
281 283 284 282 281 280 279 278 278 279 276 286 291 288 288 288 290 290 288 287 294 295 292 291 290 292 293 293 294 291 290 290 292 295 300 300 300 300 298 298 298 298 298 298 298 298 298 298 297 297 297 296 296 296 296 295 296 294 293 293 294 294 294 294 294 295 296 296 296 296 296 296 295 295 294 294 294 294 294 294 294 294 294 293 293 293
277 278 281 283 281 277 276 275 275 274 282 288 289 290 289 286 289 288 288 287 295 294 294 293 292 294 294 295 293 290 290 289 291 295 300 300 299 298 297 298 298 298 298 298 297 296 296 296 296 295 294 294 293 295 296 295 294 293 292 292 293 293 293 293 294 295 295 296 296 296 296 295 295 294 294 294 294 294 294 294 294 294 294 294 294 293
278 279 281 278 273 277 277 274 278 279 282 287 287 289 289 286 287 288 283 285 296 291 293 293 293 295 295 294 292 291 291 289 291 295 298 297 296 296 295 296 296 296 296 297 297 297 296 295 294 294 294 294 294 296 295 294 293 292 292 292 293 293 293 294 295 295 296 295 295 295 295 295 294 294 293 293 293 294 293 294 293 293 293 293 293 293
277 277 278 278 279 278 277 279 280 281 286 289 288 288 286 286 288 284 280 290 294 291 291 293 295 297 297 293 292 293 295 297 298 299 299 297 296 297 297 297 296 296 295 295 295 292 295 296 295 294 294 294 295 295 294 294 292 292 292 292 292 292 294 295 295 295 295 295 294 294 294 294 294 293 293 294 293 293 292 292 292 292 292 291 292 292
273 273 274 273 275 277 279 277 279 282 288 291 289 291 287 288 283 283 293 294 293 292 291 292 294 295 294 295 294 295 297 300 298 296 296 296 296 295 295 295 295 295 296 296 295 295 295 295 294 294 294 295 295 294 294 293 292 291 292 292 292 293 294 295 295 294 294 293 293 293 293 293 293 293 293 293 293 292 292 292 292 292 291 291 291 290
281 276 275 275 276 274 272 274 275 275 287 291 289 288 286 285 289 295 293 292 292 295 291 292 291 295 294 293 295 296 296 295 295 295 295 294 294 294 294 294 294 294 294 294 294 294 294 293 293 293 293 294 294 294 293 292 291 291 291 291 292 294 294 294 294 293 293 292 292 292 292 292 292 292 293 292 292 291 291 291 291 291 291 290 290 289
285 282 277 276 280 280 275 273 276 286 289 291 291 287 288 291 296 295 292 295 294 291 294 295 293 293 294 294 294 294 294 294 293 293 293 294 294 294 294 294 294 294 294 294 294 293 292 292 292 292 292 293 293 293 293 292 291 290 290 290 293 293 293 293 293 292 291 291 291 291 291 291 291 292 292 291 291 290 290 290 290 290 290 290 289 289
286 286 287 285 284 282 283 283 288 286 289 292 294 295 295 295 296 296 293 293 293 294 295 293 295 296 295 294 293 293 292 292 293 293 293 293 293 293 292 292 292 292 292 292 292 293 292 291 290 291 291 292 292 293 293 292 291 289 289 292 293 292 292 292 291 290 289 290 290 289 290 290 291 291 290 290 290 289 289 289 289 289 290 289 289 289
288 290 284 285 285 288 289 290 292 287 286 289 292 294 294 293 293 293 292 292 294 296 296 295 296 296 295 295 292 292 292 293 293 293 292 292 292 292 292 292 292 292 292 291 291 291 290 291 290 290 290 290 291 292 292 292 291 289 290 292 292 292 291 290 288 288 288 288 289 289 289 288 289 289 289 289 290 290 290 289 289 289 289 290 289 289
286 286 285 285 286 286 284 291 289 290 291 290 291 292 293 292 291 291 291 292 294 295 295 296 295 294 294 292 291 291 292 293 291 291 291 291 290 290 290 290 290 290 290 290 290 289 290 290 289 289 289 289 291 291 291 291 291 291 292 291 292 291 289 288 288 288 288 288 289 289 289 288 289 290 290 290 290 290 290 290 290 289 289 289 289 288
285 289 286 286 285 285 287 288 288 292 292 292 291 290 290 292 293 293 294 294 294 295 294 294 293 292 292 291 292 291 291 291 289 289 289 289 289 289 289 289 289 289 290 290 290 289 289 289 288 288 288 289 290 291 291 291 291 291 291 291 291 289 288 288 287 287 288 288 289 289 289 289 288 288 290 290 290 290 290 290 290 289 289 289 289 289
287 286 283 285 285 287 289 290 290 290 291 292 293 291 292 293 294 295 295 295 294 293 293 294 292 292 291 290 290 289 288 288 288 288 287 288 288 288 288 288 289 289 289 289 289 288 288 288 288 288 288 288 290 290 290 289 291 291 290 290 289 288 287 287 287 287 287 288 289 289 289 289 289 289 289 289 289 290 291 290 289 289 290 291 291 290
287 285 286 284 283 284 285 288 290 286 286 292 293 295 295 295 295 294 295 294 294 292 292 290 289 289 289 288 288 288 287 287 288 288 287 288 287 287 288 288 288 288 288 289 289 288 287 287 287 287 287 288 289 289 289 289 290 290 288 287 286 286 285 286 286 286 287 288 288 288 288 288 289 289 289 289 289 289 289 289 288 289 290 290 289 288
287 288 288 285 285 285 291 292 293 293 292 293 295 295 295 295 293 293 292 291 290 289 288 287 287 287 287 287 288 287 286 286 287 287 287 287 287 287 287 287 287 287 287 287 286 286 286 286 286 286 286 288 288 288 288 288 289 284 282 283 284 284 284 285 285 286 287 287 287 287 287 288 288 288 288 288 288 288 288 288 290 288 287 287 287 287
Wind_Speed
5 6 4 2 3 3 2 1 2 1 1 2 2 1 1 3 3 1 1 1 1 5 6 4 7 11 14 11 8 1 3 5 7 7 6 5 4 4 5 5 5 5 6 3 6 7 7 6 5 4 4 4 5 6 4 4 5 5 5 4 6 4 2 4 5 5 5 6 7 6 5 6 4 4 4 2 1 3 3 5 5 5 5 6 7 7
4 7 4 2 2 3 2 2 2 3 1 1 1 1 0 2 2 2 2 1 1 4 2 3 8 14 13 8 5 3 4 7 8 7 6 5 5 4 5 6 5 4 3 5 5 5 5 4 4 4 4 3 4 2 2 4 5 4 4 5 6 4 3 3 4 4 4 4 4 5 6 6 6 5 5 5 4 3 3 3 4 4 5 6 5 6
8 5 2 2 4 4 3 3 0 1 1 0 2 1 2 1 5 2 1 0 1 2 4 1 9 12 9 7 3 5 6 4 5 6 6 6 6 6 5 6 5 3 4 3 5 5 4 5 5 4 4 4 4 5 4 3 4 4 4 4 4 4 4 4 4 4 5 3 3 3 5 5 6 4 3 3 4 4 3 2 2 3 4 5 5 5
4 2 3 2 3 1 3 2 1 1 1 2 1 2 4 4 5 1 3 1 1 3 5 9 9 10 5 3 4 3 3 4 4 6 8 5 5 5 4 3 4 5 5 5 5 5 4 4 4 4 4 4 3 4 4 3 4 3 4 4 4 4 4 5 5 5 5 5 4 5 6 5 5 6 5 5 5 4 4 2 1 1 3 3 4 4
5 4 2 3 2 2 2 1 2 1 0 2 2 1 2 4 2 3 3 7 5 2 2 10 6 4 1 3 3 2 0 4 2 3 6 6 7 7 7 6 5 7 6 6 6 6 5 5 5 4 3 2 4 4 4 3 4 3 5 5 4 5 5 5 5 5 4 4 5 5 5 6 6 6 6 5 4 3 2 2 1 3 2 2 2 3
5 3 0 1 1 1 2 1 2 2 0 0 1 2 2 2 6 6 7 8 1 1 2 7 4 2 1 3 4 2 2 4 1 3 6 5 3 3 6 6 3 5 6 7 8 7 6 6 6 5 4 4 4 5 4 3 4 5 5 5 5 5 5 5 5 5 4 4 4 4 5 5 4 5 4 4 4 4 4 4 2 2 1 1 2 2
3 1 2 1 1 2 1 3 0 2 1 1 2 1 1 2 3 4 7 3 2 1 3 2 2 2 2 4 1 1 3 7 5 6 7 5 4 4 5 3 4 5 5 5 7 8 8 8 6 7 6 5 5 5 2 3 5 6 6 5 5 5 4 4 4 4 4 5 5 6 6 6 6 6 5 4 3 4 4 4 4 3 2 2 2 2
1 2 2 1 1 1 1 2 2 3 2 0 1 1 1 3 3 3 3 1 1 1 2 2 4 2 3 2 3 2 4 7 7 8 9 7 6 6 5 4 4 5 5 4 6 6 7 8 7 9 8 6 6 5 4 5 4 6 6 6 6 5 5 5 4 5 6 6 6 6 6 6 7 7 7 6 5 4 4 5 5 3 2 3 3 3
3 1 1 2 1 1 2 2 1 0 2 2 1 0 2 2 1 1 2 1 0 2 1 1 3 2 2 1 2 2 4 5 6 6 7 8 7 6 6 5 5 6 5 4 6 7 6 6 7 6 8 8 7 5 4 4 4 5 6 6 6 6 6 5 7 6 7 7 6 6 5 6 6 7 7 5 5 5 4 6 5 5 3 3 4 4
1 2 1 3 3 3 2 2 2 1 1 2 2 2 2 1 1 1 2 2 1 1 1 2 5 2 3 2 1 0 2 5 4 1 2 4 5 5 6 6 6 5 5 4 6 7 8 7 7 7 7 10 7 4 4 5 4 5 5 6 7 8 5 5 6 6 7 7 6 6 6 7 7 5 5 4 6 5 4 5 6 5 4 3 3 4
1 1 3 2 4 2 2 2 2 1 1 1 3 4 3 2 1 0 0 2 1 2 2 2 4 3 2 1 1 1 2 1 1 1 2 3 4 6 6 6 6 6 5 3 4 6 8 8 8 7 7 8 7 4 4 4 4 5 5 6 7 8 5 4 5 6 7 6 7 7 7 8 8 7 5 6 6 5 5 5 6 5 5 3 4 3
2 2 1 2 1 2 1 3 2 1 1 1 2 2 1 3 2 1 1 1 2 0 3 1 3 4 2 1 2 3 1 3 3 3 3 5 6 6 7 7 7 6 5 5 5 7 7 7 6 5 6 6 6 5 5 4 4 4 5 4 7 9 7 5 4 5 6 5 6 7 7 8 8 6 5 6 7 6 6 6 6 5 4 5 4 4
2 3 1 2 1 3 2 2 2 1 2 3 3 2 2 0 1 1 1 1 0 2 2 1 3 1 7 5 1 1 4 5 7 3 1 2 3 4 5 7 5 4 4 5 6 5 5 5 6 6 6 5 5 4 4 5 4 5 6 6 6 9 6 4 4 5 6 5 6 6 7 7 6 6 7 7 7 7 6 5 5 5 5 5 5 5
2 1 1 1 2 1 2 2 1 1 2 2 1 2 2 1 2 1 0 1 3 2 1 1 2 4 5 5 4 6 3 2 2 4 5 5 5 5 5 4 4 5 5 6 5 6 7 6 6 6 6 6 5 6 5 4 4 4 4 6 6 9 6 4 4 6 6 7 7 6 6 6 6 7 6 7 7 7 6 5 6 6 6 5 6 5
0 0 2 0 1 1 1 2 2 3 3 2 0 1 2 1 1 1 1 2 2 3 2 1 2 0 4 2 1 3 5 4 4 4 5 6 7 8 7 7 8 9 9 6 6 6 7 7 7 6 5 5 6 6 6 5 4 3 5 5 6 8 8 5 5 5 7 7 7 7 6 6 6 6 6 6 6 7 6 6 6 6 6 6 6 6
0 2 3 3 2 2 1 1 1 1 2 1 0 2 1 2 2 2 2 1 1 3 3 2 3 1 3 2 4 3 5 7 5 5 4 8 6 5 7 7 7 7 7 6 6 7 8 8 6 6 6 6 6 6 6 7 5 4 5 5 7 8 9 8 7 7 7 7 6 6 7 8 7 6 6 6 6 7 7 7 6 7 7 7 6 6
1 1 2 1 0 2 2 1 1 2 1 1 2 1 2 1 1 4 2 2 2 2 2 1 6 4 6 4 3 1 3 5 4 6 6 8 5 3 7 7 7 7 6 6 6 6 8 6 6 6 6 6 6 6 7 7 6 6 6 6 8 8 8 8 8 7 7 7 7 8 7 7 7 8 8 8 9 8 7 7 7 7 7 6 6 6
1 1 2 1 2 2 1 2 1 1 2 2 0 3 3 1 2 1 2 0 0 1 1 1 4 8 6 1 0 1 2 2 2 3 4 6 3 6 8 7 6 6 6 7 8 9 9 8 8 7 6 7 7 7 8 9 7 6 7 8 8 8 9 8 7 7 6 6 7 7 8 8 8 7 8 8 8 7 6 7 7 7 7 8 7 5
1 1 2 1 1 1 2 2 2 1 2 2 3 1 3 0 1 1 1 1 2 2 5 4 3 7 5 4 1 3 4 4 5 1 3 5 4 6 6 6 6 6 6 6 7 6 6 6 6 5 6 7 7 8 9 8 8 7 8 8 8 10 9 8 5 5 5 6 5 5 7 7 7 8 8 7 7 6 7 8 8 8 8 7 7 6
1 1 1 1 0 2 2 1 1 3 2 1 2 0 0 2 1 2 2 1 0 2 1 2 2 3 5 3 3 3 5 2 2 2 4 4 4 4 4 5 5 6 5 6 6 6 6 7 7 8 8 9 9 8 8 8 8 9 9 8 9 9 8 8 8 8 7 7 6 6 6 7 8 7 7 7 7 7 8 9 8 8 8 9 7 7
0 0 1 3 2 2 2 1 0 1 2 3 2 1 2 2 1 0 1 0 1 2 1 2 4 3 2 4 5 4 1 1 2 3 3 4 5 6 6 6 6 6 7 7 7 7 8 8 8 8 8 8 8 8 8 8 9 8 7 9 8 9 8 8 8 7 7 6 6 7 8 8 7 8 7 7 8 8 9 9 8 8 8 6 7 7
0 1 1 1 2 2 1 3 2 4 5 4 2 0 2 3 1 0 1 2 1 2 2 1 7 6 5 3 5 5 0 1 2 2 5 6 7 7 7 6 5 7 8 9 9 8 8 9 10 9 8 7 7 9 9 8 7 8 8 8 7 7 8 8 8 7 7 5 5 7 8 8 7 6 6 7 7 9 9 9 9 8 7 8 9 7
2 0 0 2 0 1 3 3 1 2 1 1 4 0 0 1 1 1 2 2 1 1 2 1 2 6 1 2 2 4 3 4 3 3 6 7 7 7 8 8 7 7 9 10 11 9 9 10 10 10 11 11 11 11 10 8 7 7 8 7 7 7 10 8 8 6 6 6 6 8 7 7 7 7 8 8 8 9 9 9 9 8 8 9 8 8
2 0 1 1 2 0 2 1 1 1 3 2 2 1 1 2 1 2 1 1 2 3 2 1 3 6 1 2 3 3 3 4 4 5 7 7 7 8 9 10 9 9 9 9 9 9 9 9 9 9 10 10 9 9 9 8 8 8 7 7 7 9 11 8 7 6 6 7 8 8 7 8 8 8 8 8 9 10 10 9 9 8 9 9 8 9
1 1 0 2 1 2 2 2 1 1 0 3 2 3 1 2 3 2 3 1 2 7 4 3 6 3 1 1 2 3 3 5 6 6 7 8 9 8 9 9 8 9 10 11 11 11 10 9 9 9 9 9 9 9 8 8 8 7 8 7 8 9 8 8 6 6 6 7 8 8 8 9 9 9 9 10 9 10 10 10 9 8 9 9 9 10
1 0 1 2 2 3 2 3 0 1 4 3 1 2 4 6 8 4 2 2 4 0 4 3 6 5 3 1 3 5 4 9 9 6 6 7 10 11 9 9 10 9 10 11 11 10 10 9 8 8 8 8 8 8 9 9 8 9 8 9 8 8 8 7 6 6 6 7 7 8 9 10 9 10 11 10 10 10 10 9 9 9 8 9 11 10
1 1 2 2 3 4 3 2 2 3 3 4 3 6 7 6 3 3 2 2 8 4 8 13 7 11 15 12 9 9 6 11 13 13 9 5 7 7 7 8 8 8 9 11 11 10 10 10 10 9 9 8 8 8 7 8 9 9 9 10 10 8 8 8 6 6 7 8 8 8 9 9 10 9 9 9 10 8 8 9 9 9 10 9 10 9
1 1 4 3 8 9 3 2 3 3 7 6 5 6 9 10 9 9 9 7 6 5 10 8 12 11 17 15 12 12 11 9 8 9 10 9 10 10 9 10 11 10 9 8 8 9 10 10 10 9 9 8 8 7 7 7 8 9 9 10 10 8 7 5 6 7 8 8 8 9 11 10 9 9 9 9 8 9 10 9 9 9 9 8 9 10
0 2 1 1 7 5 5 5 2 3 7 7 8 7 10 12 10 13 15 8 9 7 12 2 4 6 15 13 14 15 14 11 14 15 12 10 11 11 10 10 10 10 9 8 9 8 8 9 9 9 9 8 8 9 9 7 7 6 7 8 10 9 9 6 6 8 8 8 9 10 10 9 7 7 8 8 9 9 10 10 9 9 9 8 9 8
1 2 1 0 7 9 8 4 3 7 4 5 11 13 11 12 16 17 16 11 14 16 15 13 8 15 18 18 18 16 11 12 14 13 10 10 10 8 8 9 9 9 9 10 10 9 8 8 9 9 8 9 8 8 8 7 8 7 7 9 8 8 7 3 7 8 9 9 10 9 8 8 7 8 8 8 9 10 9 9 9 8 9 10 10 10
1 1 5 1 1 4 1 2 2 3 4 8 11 12 14 14 14 16 9 9 7 13 18 18 13 17 21 16 12 14 12 10 10 12 12 9 8 8 8 9 9 10 10 10 10 9 8 8 8 8 8 9 8 8 8 8 8 8 8 8 8 8 7 4 7 7 8 11 10 8 8 8 8 7 9 10 9 9 9 10 8 8 10 10 10 10
1 1 2 0 2 3 2 3 2 3 6 9 15 15 14 14 11 13 12 13 14 16 11 4 9 14 18 5 4 8 8 8 10 11 11 8 6 6 8 10 10 11 11 11 10 9 9 9 9 9 9 9 9 9 8 7 8 8 10 9 8 7 5 5 7 9 10 11 9 9 10 9 9 9 11 10 10 10 9 8 9 10 10 10 11 11
3 3 2 1 2 4 1 1 5 8 9 12 13 17 17 15 13 2 8 6 16 12 6 8 13 13 7 3 5 11 7 8 8 9 10 8 6 5 9 11 12 12 11 11 11 10 10 9 9 10 10 9 9 9 9 8 7 9 10 10 10 6 6 8 8 9 10 10 9 10 9 9 9 10 11 11 10 9 8 10 10 11 10 12 11 9
1 2 1 1 2 1 1 4 1 3 8 7 1 1 5 8 15 14 10 14 16 14 13 8 11 8 6 5 7 12 12 12 4 8 7 9 10 11 10 10 11 11 11 11 10 10 10 8 8 8 8 10 10 9 8 7 8 9 10 9 8 8 9 8 9 8 10 10 11 11 10 9 9 10 11 11 10 10 10 10 11 11 10 9 9 11
4 2 1 0 1 2 3 5 6 9 10 2 2 2 1 1 10 15 9 7 10 17 16 13 16 15 15 11 11 13 13 11 7 11 15 13 6 8 11 12 11 10 10 10 10 9 9 9 9 9 10 10 10 10 9 9 7 6 8 8 9 8 9 8 8 9 9 9 11 10 10 10 10 11 11 11 10 10 11 11 11 12 11 9 10 11
5 4 3 0 1 0 0 2 1 7 3 7 10 3 4 5 3 3 10 15 17 16 17 17 19 18 15 14 14 11 5 5 7 11 13 14 10 8 8 9 10 8 9 8 10 10 10 10 11 11 11 10 11 10 9 10 7 7 9 8 9 9 9 9 8 10 9 9 10 10 11 11 11 11 11 11 11 10 11 11 11 12 11 10 9 10
3 3 1 2 2 3 1 2 12 10 18 10 10 3 6 4 7 5 3 4 9 12 16 17 19 16 13 14 14 2 4 1 4 8 10 9 9 7 8 9 9 9 8 9 9 11 10 11 11 11 10 11 10 10 10 9 7 7 8 9 9 8 8 8 9 10 9 9 10 10 10 10 11 11 10 11 11 11 11 11 12 11 8 9 10 11
2 3 1 2 2 1 3 5 4 2 5 3 2 3 2 2 3 2 2 9 10 15 12 14 15 14 12 11 7 2 2 1 4 5 7 8 5 5 4 7 7 7 8 9 9 9 10 10 9 9 9 11 11 12 11 10 8 9 10 11 10 9 8 7 11 11 10 10 10 10 9 9 10 11 11 10 11 12 11 11 10 11 8 10 11 11
3 3 1 3 2 3 1 3 4 4 5 3 3 2 1 2 3 2 1 8 4 4 12 14 14 11 9 8 3 5 2 5 7 6 1 4 3 2 6 6 7 8 8 8 9 10 9 9 9 10 9 10 11 12 11 12 11 10 11 12 11 12 10 11 11 11 12 12 12 11 11 10 10 11 12 12 12 10 12 12 11 10 9 10 10 11
3 0 1 2 2 4 2 3 8 5 6 0 4 1 2 3 3 3 4 5 1 5 8 11 11 9 10 5 4 4 4 7 11 11 2 1 2 5 6 8 9 9 10 11 10 8 7 6 7 8 9 10 12 12 12 9 8 10 10 10 9 10 11 12 11 12 11 11 11 10 11 8 9 10 11 13 12 11 11 11 10 11 11 11 10 11
2 1 3 9 4 3 7 7 4 6 5 6 7 5 3 3 2 2 6 8 3 5 7 10 9 10 7 5 7 5 7 9 11 10 8 8 6 7 6 6 7 7 9 9 10 9 9 8 6 8 10 10 11 11 9 7 7 9 9 10 10 11 11 11 11 12 11 10 10 11 11 10 10 12 11 11 12 11 11 10 11 11 11 12 11 11
1 1 0 3 5 9 6 6 8 7 5 10 1 9 6 2 2 6 7 1 4 5 6 9 9 6 5 8 7 8 9 6 7 9 10 9 9 9 8 8 8 9 8 7 8 9 7 7 10 11 11 10 10 9 8 8 8 10 10 10 11 12 12 12 12 12 12 12 12 11 12 12 11 12 10 10 10 10 11 10 10 10 11 11 11 13
9 8 6 6 3 2 0 3 5 8 2 8 12 6 1 4 7 5 3 4 4 3 8 8 8 7 7 8 9 10 9 9 9 10 9 9 10 10 9 9 9 9 10 11 11 11 10 9 9 10 11 10 10 9 9 8 9 9 9 11 14 13 13 13 12 12 13 13 13 12 13 12 13 12 11 12 11 12 12 11 10 10 9 11 11 12
8 3 2 4 7 4 6 8 10 7 3 15 16 8 10 15 8 4 3 8 4 4 4 5 7 10 8 8 9 6 7 8 9 8 9 9 7 8 7 7 8 7 8 8 8 10 10 9 10 11 11 11 9 9 8 8 10 10 12 13 13 13 12 12 13 13 12 12 12 12 12 13 12 11 11 12 12 9 12 11 10 10 8 9 9 10
13 9 6 5 6 8 8 9 6 1 7 13 13 10 7 14 13 5 3 5 6 6 5 5 10 7 6 8 8 7 7 6 9 8 8 9 7 8 8 8 9 9 9 10 10 10 9 10 11 10 11 11 13 10 10 9 11 14 12 14 14 14 14 13 11 11 10 12 11 10 10 11 11 11 10 11 9 11 10 11 11 10 8 6 8 9
3 6 5 2 4 5 13 5 4 2 5 11 15 13 5 5 5 4 8 11 8 9 7 7 8 10 10 5 7 8 7 7 9 7 7 8 7 7 7 7 8 9 10 10 11 12 10 10 10 11 13 13 13 13 11 11 11 13 15 14 14 14 13 12 12 12 12 11 11 11 11 11 10 10 9 11 9 10 8 10 11 9 9 8 9 9
7 4 3 5 1 3 13 4 14 16 11 17 13 7 10 10 10 7 10 11 11 11 13 8 6 8 7 5 7 10 9 7 8 7 6 7 7 8 9 9 10 10 11 12 12 12 12 11 11 12 13 14 13 12 13 13 12 12 13 13 13 13 11 11 12 12 12 12 12 11 9 11 10 10 9 9 8 8 8 9 9 10 9 9 9 10
4 7 8 12 6 8 19 7 6 7 11 6 1 7 10 12 15 15 12 11 13 14 12 7 5 6 5 6 6 6 7 6 7 8 7 7 8 8 9 10 11 11 11 11 12 12 10 12 13 13 14 13 13 13 13 13 14 13 13 13 14 13 12 12 12 13 13 13 11 10 10 10 13 13 10 10 9 10 10 8 8 9 11 10 9 11
3 9 4 5 9 16 15 13 15 14 16 16 11 10 12 11 12 14 16 13 11 12 12 5 3 3 3 6 7 5 5 6 7 8 7 7 7 8 9 10 10 10 11 12 12 9 12 12 12 13 13 13 12 13 13 11 13 13 14 15 14 14 14 14 14 13 13 13 11 11 10 11 11 11 12 11 10 9 9 10 10 11 11 10 8 9
5 10 4 2 10 13 12 10 4 6 12 5 6 14 16 15 13 15 15 11 9 9 7 5 5 6 7 9 9 7 7 6 8 8 8 7 8 9 10 10 10 11 11 11 11 12 10 10 11 11 11 12 12 12 12 10 11 12 14 15 13 14 15 15 14 13 12 11 11 12 13 13 13 12 12 13 14 14 12 11 13 12 12 13 14 15
11 12 7 9 10 12 17 10 9 14 15 12 9 7 10 4 4 6 4 4 4 5 4 5 6 6 8 9 9 9 8 8 9 8 8 8 9 9 10 10 10 11 11 12 12 12 13 14 12 11 11 13 12 10 9 9 10 13 15 14 14 14 14 14 13 12 12 12 12 13 13 13 14 13 13 13 14 14 15 16 13 12 17 18 20 22
Wind_Direction
296 78 45 46 26 359 322 9 39 80 51 117 130 190 328 282 264 130 207 85 357 279 243 245 266 274 277 279 293 282 177 233 239 240 237 239 242 246 257 254 259 259 272 316 290 275 264 265 262 261 266 264 258 243 239 239 238 239 250 266 267 270 275 287 298 304 314 314 316 316 324 327 330 329 324 307 356 353 352 337 342 343 358 353 353 358
255 74 36 32 338 326 296 195 146 135 139 315 209 291 175 221 322 89 282 75 315 345 258 194 276 273 266 280 270 220 212 229 209 205 215 219 217 235 243 255 254 274 277 263 269 243 229 240 240 251 249 248 270 222 215 251 265 259 248 244 256 261 255 255 267 283 285 282 293 306 307 318 317 325 327 334 334 343 322 320 332 341 353 348 352 355
45 70 84 94 101 117 99 150 330 272 80 94 321 315 240 132 286 304 248 85 315 252 277 328 299 284 291 290 245 224 230 226 200 202 186 190 208 224 224 236 250 248 265 264 252 250 240 235 244 236 236 235 240 273 268 265 267 254 240 235 240 249 251 253 234 242 258 260 255 260 286 303 308 292 278 292 292 292 293 293 308 339 347 346 350 354
98 94 81 105 186 187 85 63 133 98 91 6 290 304 345 9 334 154 154 306 253 281 324 323 296 286 299 254 260 245 258 321 323 308 302 294 269 251 284 329 313 289 271 252 236 232 224 231 245 227 221 213 229 249 249 222 238 243 250 245 243 245 238 242 233 230 245 245 249 243 255 259 242 273 286 270 259 246 242 266 216 17 352 339 340 350
69 56 40 136 196 273 106 151 214 266 192 80 11 21 308 334 330 287 354 323 295 219 271 293 249 258 201 200 209 138 140 292 294 296 272 262 264 296 314 298 257 272 283 281 278 265 257 251 235 237 248 235 245 239 243 233 230 223 244 241 240 245 241 237 230 224 233 241 244 233 231 228 238 229 230 234 216 197 216 263 344 354 341 321 320 334
68 51 316 203 137 147 251 140 31 315 286 122 131 338 343 322 292 301 305 319 216 186 48 2 289 191 151 245 252 77 312 263 160 291 260 242 232 258 267 261 252 244 256 268 278 292 302 293 295 282 261 250 249 253 238 231 244 240 241 233 227 236 239 236 231 224 219 236 252 264 276 275 276 291 290 294 302 308 309 311 300 244 222 281 278 291
65 103 233 255 189 165 215 69 50 293 346 269 86 308 64 314 299 305 333 315 240 277 33 291 337 327 127 247 141 27 296 275 255 243 257 251 223 220 236 235 238 249 248 237 256 270 276 276 273 275 273 267 269 271 280 263 257 248 246 236 229 230 229 228 235 215 221 229 233 238 251 259 268 273 275 271 263 263 277 285 279 268 206 191 232 245
139 118 126 109 230 237 269 86 82 344 302 6 28 156 122 299 302 354 314 313 326 277 261 34 26 303 302 95 32 359 303 276 267 249 238 233 232 229 225 225 237 248 250 256 258 260 259 268 271 279 289 285 281 296 298 282 271 265 254 237 228 226 226 214 208 207 216 227 228 229 230 239 244 243 260 267 266 260 272 277 275 273 239 181 196 214
359 127 335 49 204 49 42 16 69 310 320 14 133 307 320 326 8 298 310 321 325 294 173 110 6 229 238 115 130 6 277 253 263 253 233 224 220 222 223 223 233 246 252 253 263 268 274 280 285 291 295 299 295 282 279 280 286 282 275 269 255 245 235 227 204 204 204 220 228 226 232 240 240 244 254 264 265 270 261 272 274 269 269 223 194 202
76 14 358 316 350 35 63 63 355 245 287 94 136 140 116 138 126 308 290 286 221 263 221 34 344 319 324 114 181 93 268 275 259 268 261 220 210 207 213 218 231 242 244 234 249 265 275 272 274 276 283 283 274 268 263 266 262 261 266 265 264 254 236 228 212 211 207 204 213 223 230 238 251 245 253 251 263 266 263 268 274 268 263 249 220 199
72 182 269 349 50 26 107 65 23 344 47 88 215 244 199 205 221 252 337 301 260 220 87 42 337 341 309 97 186 179 177 125 82 193 208 201 210 225 230 230 236 239 242 244 251 262 263 267 268 269 269 273 283 270 266 264 257 265 261 267 272 268 260 233 227 215 217 204 203 217 225 230 244 250 253 265 263 256 253 260 266 265 266 257 254 230
185 175 172 69 328 101 215 123 93 33 59 236 258 268 247 200 204 223 187 248 271 128 102 353 355 328 274 121 209 237 114 223 224 225 209 199 204 206 212 225 233 239 250 260 265 267 266 275 256 228 259 262 272 279 268 260 271 270 260 256 272 276 258 248 236 227 226 211 212 220 222 230 237 242 241 248 261 260 257 257 264 266 264 258 247 232
118 54 64 122 56 321 95 239 129 159 166 239 233 228 269 82 217 196 170 235 124 321 121 74 330 254 222 256 20 192 217 218 231 287 285 223 230 240 250 249 254 263 270 264 265 272 277 270 280 285 281 276 265 261 271 274 268 274 271 260 264 274 269 252 249 244 242 229 223 216 218 226 230 231 238 247 254 259 255 253 253 255 256 254 252 237
114 98 204 86 187 115 288 312 51 194 168 254 301 337 294 332 46 327 18 215 270 123 358 186 348 260 287 268 256 266 329 9 324 262 290 285 266 265 265 279 281 273 265 264 263 268 266 264 268 264 268 272 277 274 273 268 256 262 269 272 261 270 271 254 247 250 252 246 240 225 220 222 216 226 226 235 243 249 246 247 251 249 251 254 248 250
267 176 131 289 117 293 275 351 1 322 316 31 239 305 349 342 335 347 300 323 350 317 106 340 279 233 350 91 215 267 306 296 261 262 267 269 269 277 292 290 280 272 266 249 254 253 257 262 259 264 266 266 269 275 279 270 252 250 267 261 265 276 277 255 247 245 247 251 242 232 229 225 219 222 221 227 231 239 240 238 240 245 247 248 251 244
67 314 69 11 352 311 352 53 284 298 221 154 96 243 251 56 304 307 34 307 333 330 288 147 262 40 243 58 272 267 283 273 236 240 238 262 244 250 272 261 257 258 260 257 259 261 257 251 259 257 255 257 262 270 273 270 259 246 247 246 253 257 269 275 266 253 251 255 255 241 233 231 224 225 227 232 226 230 230 237 237 245 242 242 250 253
194 179 95 120 185 55 54 241 84 280 340 91 227 42 34 294 154 113 157 114 212 207 233 7 279 215 260 281 288 333 272 263 234 244 235 250 241 244 263 262 260 261 262 265 262 261 269 267 250 244 253 261 264 265 262 266 262 261 261 252 253 252 253 253 249 255 254 256 255 253 242 235 227 224 224 228 227 223 220 224 233 239 244 245 242 247
305 76 109 165 184 109 313 278 295 250 291 275 236 85 121 79 338 280 333 169 292 342 290 103 320 309 344 135 133 321 318 242 252 220 244 262 253 256 254 255 261 267 277 277 272 268 265 266 266 262 255 252 257 267 274 272 270 261 263 261 260 258 255 252 249 251 246 248 251 254 248 240 235 236 236 238 239 231 222 222 228 230 237 236 235 229
315 222 135 3 348 116 149 244 212 172 233 344 63 147 283 280 189 116 241 341 330 300 313 304 294 259 234 275 226 220 201 220 227 267 289 259 222 238 258 273 274 271 272 271 269 266 262 258 259 258 262 267 265 264 264 271 270 265 258 251 251 259 259 265 266 257 254 244 242 242 250 251 244 239 245 247 247 243 235 234 229 223 228 237 232 231
263 305 124 135 201 2 271 248 226 138 147 208 236 174 112 265 44 320 53 293 307 290 315 286 27 295 186 240 219 188 204 209 221 273 255 277 293 286 278 274 280 289 279 277 279 273 271 272 269 271 277 281 280 279 272 268 267 262 260 256 254 253 255 256 250 245 246 240 233 242 248 247 243 245 243 245 246 242 241 242 238 234 231 230 229 229
108 323 312 111 286 279 183 257 11 6 200 173 195 164 132 44 317 53 84 316 298 292 269 308 309 253 195 198 205 224 188 227 238 267 299 295 294 286 274 275 285 289 289 284 280 281 281 280 280 275 274 276 276 265 261 258 259 263 266 261 257 257 260 250 246 236 237 234 233 234 241 243 238 236 236 243 240 246 250 250 247 244 241 237 230 225
175 178 297 104 191 214 72 32 354 354 346 321 315 67 128 153 168 275 253 96 340 247 209 225 277 287 288 119 221 241 16 278 258 261 289 287 281 289 289 281 278 290 290 285 284 286 287 287 288 290 287 277 276 275 269 263 257 257 255 256 264 261 255 253 250 235 237 227 231 233 239 241 238 235 232 235 240 241 246 247 245 245 246 241 242 225
324 65 280 259 4 45 38 64 4 338 313 290 300 189 8 51 291 161 271 172 229 154 4 10 306 276 69 188 240 256 265 258 258 246 269 275 279 283 285 284 287 272 276 286 290 292 290 289 290 293 291 289 283 280 280 279 268 265 265 260 251 247 256 243 251 249 244 242 240 240 239 242 241 235 232 233 237 237 238 242 244 241 241 246 248 236
194 219 256 206 115 140 165 151 149 35 309 265 201 287 213 208 245 289 310 107 204 121 201 178 239 253 147 161 249 278 274 281 267 234 256 276 279 283 282 289 293 297 292 287 283 278 278 284 288 290 290 290 288 286 284 281 279 273 265 258 256 253 256 252 246 248 244 245 245 247 247 246 245 239 237 234 232 234 233 231 237 230 234 240 244 244
233 152 300 315 277 163 172 164 186 115 342 242 258 163 262 63 72 85 88 31 275 204 194 160 260 252 75 53 258 252 268 264 254 213 200 262 281 278 287 289 290 292 292 295 296 296 296 293 292 292 290 287 287 285 281 281 277 274 271 260 253 256 255 254 250 248 248 247 252 249 243 244 239 238 237 235 237 235 234 233 231 227 227 231 236 236
264 128 211 265 312 315 292 297 305 188 195 173 188 148 210 184 147 171 191 157 244 175 157 221 254 256 143 236 232 225 233 284 283 257 198 219 264 285 289 289 294 297 291 293 295 298 301 301 294 285 281 282 280 279 284 282 277 275 272 268 257 261 264 255 250 244 250 247 247 250 246 247 243 241 242 241 242 239 236 235 231 232 228 223 232 231
122 38 259 237 255 257 316 53 50 78 98 218 184 195 189 221 256 320 57 163 227 154 200 227 234 307 293 263 250 269 284 283 294 307 305 277 262 244 248 270 282 289 292 295 296 294 295 292 291 291 289 277 276 274 274 280 283 279 276 275 267 252 256 260 251 250 246 246 244 253 251 245 240 239 242 240 242 244 244 240 237 232 235 225 228 229
91 260 216 222 257 261 16 283 160 226 255 250 212 215 190 186 192 189 191 215 124 112 259 228 226 238 259 280 293 295 287 283 288 293 298 305 308 308 307 303 294 284 277 277 281 283 285 288 289 290 290 291 284 281 273 265 263 272 277 282 286 279 263 254 243 248 246 244 246 243 248 245 240 241 243 246 247 247 247 246 243 238 238 235 233 233
199 240 62 151 260 267 269 251 199 230 232 257 240 230 193 194 180 202 224 204 156 216 250 92 157 227 263 270 276 280 286 305 307 298 294 296 291 289 299 299 297 293 293 290 281 278 277 282 287 294 297 295 298 295 292 285 279 269 264 262 265 271 271 281 280 271 259 250 246 245 243 247 246 248 255 253 252 251 247 245 244 245 243 236 240 237
174 252 113 260 289 286 270 250 198 220 248 246 242 236 230 182 206 213 229 208 203 237 254 279 286 274 276 276 278 280 299 302 294 293 293 287 279 286 291 285 282 289 294 296 292 289 282 275 279 282 289 289 285 287 290 292 291 288 281 280 275 272 274 256 259 254 262 258 253 252 254 257 263 263 260 257 252 250 250 249 248 246 246 246 244 244
215 293 108 173 304 276 319 41 158 224 223 259 254 234 227 223 221 223 243 243 238 268 269 265 279 280 274 265 270 285 288 285 284 277 272 271 285 288 285 283 286 293 294 292 289 288 287 285 280 279 277 277 283 283 284 283 286 288 284 273 273 276 274 254 264 256 254 260 260 266 273 275 273 272 267 261 259 260 257 258 255 253 251 249 245 243
258 254 71 93 296 278 22 13 315 237 237 242 264 258 222 199 218 226 210 220 190 225 234 271 269 257 261 287 280 259 262 268 264 278 287 287 291 285 281 285 291 292 292 290 290 293 294 294 292 291 288 291 292 291 285 286 291 291 286 287 288 286 285 265 261 264 266 266 272 274 274 269 270 269 267 264 261 259 259 259 259 259 254 251 251 245
202 166 174 167 262 255 308 326 352 326 307 281 257 239 218 194 199 121 233 209 209 203 206 222 236 227 265 53 302 288 253 241 253 266 280 287 258 244 269 276 278 279 278 283 285 287 290 291 291 291 288 287 287 290 292 294 290 282 287 295 297 310 284 273 268 270 269 272 274 274 266 264 264 266 268 266 265 264 265 263 261 259 254 249 248 250
128 199 143 190 253 272 299 300 295 309 279 247 49 2 125 171 193 205 224 215 217 183 217 221 254 292 293 235 232 261 281 282 310 292 271 264 285 291 280 266 261 264 272 274 273 277 279 281 282 282 280 284 284 283 288 284 274 279 286 285 290 287 280 274 276 265 269 271 275 275 273 272 269 269 268 271 271 270 268 264 259 259 258 256 255 252
158 167 143 129 249 280 335 305 293 265 245 34 330 197 56 94 172 203 232 234 217 213 240 269 261 258 253 248 253 259 261 282 317 294 291 283 241 245 262 275 277 273 272 279 282 278 276 280 284 286 290 293 301 304 303 293 280 284 279 280 283 277 281 274 274 275 271 271 274 276 278 276 270 270 271 271 271 270 267 264 264 261 258 255 253 254
158 159 144 196 212 307 144 140 280 238 321 291 267 193 121 90 96 36 274 244 239 213 211 231 246 252 256 260 264 259 282 323 318 284 268 270 260 245 241 247 257 263 272 272 281 290 296 300 303 304 299 299 301 297 295 289 294 301 292 289 279 281 278 279 277 276 272 273 271 271 272 274 273 270 272 271 269 266 267 264 259 261 260 264 259 253
172 89 184 221 158 248 215 219 246 338 312 288 271 155 187 177 168 176 279 284 230 219 195 215 240 251 256 259 256 297 64 306 282 284 268 258 262 238 228 247 255 270 273 280 283 288 292 297 299 296 297 296 294 293 289 296 305 299 291 287 283 282 280 280 281 277 274 271 273 268 269 272 274 272 270 272 272 269 266 265 265 263 259 262 256 257
319 225 189 192 253 150 244 283 286 275 257 274 247 9 262 320 146 201 73 275 217 234 168 193 225 239 245 255 268 63 140 231 261 242 241 261 242 259 233 245 264 261 268 272 278 276 282 285 286 284 282 290 293 291 296 304 309 304 298 301 303 303 293 291 292 295 295 291 285 282 281 276 276 278 275 273 270 270 269 266 267 267 259 264 268 260
34 60 30 226 225 112 149 216 229 228 252 115 101 185 128 153 165 206 297 293 293 191 170 188 214 234 234 236 204 129 193 282 280 308 227 211 273 255 281 278 277 282 279 276 280 288 290 294 297 295 293 288 286 284 292 304 312 310 300 299 301 304 299 295 295 301 304 305 303 299 293 288 284 281 280 277 274 270 274 272 271 270 269 264 259 260
66 76 130 215 200 214 179 231 249 200 248 151 203 267 174 146 172 190 301 282 266 189 190 175 211 220 230 219 148 192 220 284 303 321 91 205 230 280 274 291 302 305 307 309 308 300 297 281 283 288 289 289 287 293 299 302 301 295 290 289 292 293 293 295 300 305 305 302 301 299 297 285 279 277 277 281 278 273 274 278 277 273 271 267 264 268
167 196 209 225 212 200 201 263 312 275 245 243 204 183 132 189 185 305 238 246 237 167 191 190 213 213 198 162 174 224 209 234 280 311 340 303 289 293 292 294 290 289 290 297 298 311 314 315 299 289 290 288 292 297 300 304 298 292 291 296 293 289 292 301 306 308 308 303 296 297 298 296 290 289 284 279 282 280 280 278 276 278 275 275 273 268
326 98 330 60 222 212 211 227 251 293 245 205 48 143 149 145 227 211 235 217 151 190 189 199 219 229 209 214 197 224 257 282 320 310 300 310 310 296 291 294 302 303 298 296 299 304 303 312 311 311 308 305 307 307 306 309 302 299 303 305 298 300 309 315 317 313 307 303 300 297 299 297 296 298 297 293 288 284 280 273 268 269 273 274 275 275
181 156 196 188 187 53 80 239 314 282 337 148 117 78 287 181 240 225 256 279 194 168 163 215 219 239 203 248 223 240 268 276 277 283 293 298 293 295 305 313 313 312 315 319 322 325 328 323 318 313 311 311 313 315 313 313 305 302 304 305 305 316 324 323 318 316 314 310 305 303 302 300 301 299 301 298 295 290 287 285 280 274 268 271 272 270
171 197 198 233 186 185 179 189 202 221 127 157 152 170 203 216 234 189 179 281 175 188 224 261 211 215 228 241 263 254 242 267 282 277 277 277 283 302 312 308 307 308 312 313 313 319 329 315 316 319 320 318 317 318 319 320 317 317 319 310 321 326 324 323 324 320 313 310 305 305 303 304 301 298 297 299 298 291 291 288 286 280 273 272 272 275
185 201 170 230 173 188 212 214 203 149 184 194 206 216 207 219 236 261 2 288 309 260 211 241 276 268 214 242 267 274 288 265 263 274 285 295 313 315 318 320 320 323 326 330 330 331 333 327 322 317 317 325 325 328 331 330 326 327 323 326 332 330 330 330 326 318 313 311 307 307 305 304 302 300 299 297 294 298 294 291 292 288 281 262 266 266
359 233 49 310 237 274 284 238 94 173 197 239 244 246 271 285 315 308 271 279 251 257 256 263 281 291 298 311 305 295 280 292 298 306 313 316 318 319 322 327 333 338 336 337 339 346 334 329 327 330 331 330 332 334 340 337 335 331 331 333 332 333 336 332 328 325 321 318 315 313 309 306 303 300 297 297 293 290 283 289 291 283 285 281 277 274
229 171 193 239 305 10 269 134 177 222 213 225 234 269 275 281 268 261 279 253 262 273 281 273 261 299 315 330 274 274 289 318 317 319 328 324 333 341 344 345 347 348 347 348 348 347 343 343 339 337 334 331 337 339 339 338 337 334 335 334 337 339 339 333 329 326 324 324 320 317 315 314 315 312 307 301 299 287 278 279 281 279 275 273 275 271
273 163 200 237 247 220 253 141 225 261 260 294 79 255 254 260 263 259 241 248 264 277 282 296 332 290 275 275 286 307 320 337 334 340 345 347 349 354 356 356 351 350 355 354 353 353 347 349 343 339 339 337 339 344 342 341 339 339 340 343 348 345 342 339 338 333 328 324 323 320 322 320 314 312 309 309 305 300 298 288 279 287 289 292 293 293
146 109 233 158 226 248 266 272 266 272 268 251 216 220 230 221 243 250 260 260 261 267 280 329 104 281 325 337 355 357 358 8 7 358 359 359 6 5 1 356 353 354 355 358 0 357 356 344 343 340 338 336 344 346 342 340 337 342 350 353 350 345 341 338 334 331 326 325 324 322 324 320 318 315 314 309 305 298 297 301 300 291 283 277 276 277
119 238 182 67 263 262 257 251 152 261 271 270 183 222 234 236 237 250 262 277 293 303 326 351 53 38 40 38 31 30 32 20 17 12 10 15 12 6 359 359 358 359 2 3 2 355 351 344 345 336 338 340 347 346 339 340 340 358 3 353 349 344 340 334 328 325 324 324 325 326 329 327 324 323 320 320 317 314 305 280 265 269 285 293 277 259
208 229 133 217 240 262 259 249 180 247 265 274 271 244 255 296 318 300 344 355 13 36 31 56 64 52 44 39 37 35 30 22 17 15 15 16 11 7 1 2 5 4 5 3 2 357 353 348 343 341 340 345 347 343 342 341 357 13 358 354 346 343 337 333 328 325 325 328 329 327 324 326 326 325 322 320 319 317 314 314 304 262 248 252 276 281